Big Delta, AK

11:19 AM AKST on November 17, 2017 (GMT -0900)
Allen Army Air Field

Weather History for PABI - December, 2013

Change the Weather History Date:

Sunday, December 22, 2013

  Actual Average Record
Temperature  
Mean Temperature 8 °F -  
Max Temperature 10 °F 6 °F 48 °F (1999)
Min Temperature 5 °F -2 °F -38 °F (2012)
Degree Days  
Heating Degree Days 58    
Moisture  
Dew Point 3 °F    
Average Humidity 77    
Maximum Humidity 92    
Minimum Humidity 54    
Precipitation  
Precipitation 0.08 in - - ()
Sea Level Pressure  
Sea Level Pressure 29.69 in    
Wind  
Wind Speed 13 mph (West)    
Max Wind Speed 22 mph    
Max Gust Speed 30 mph    
Visibility 3 miles    
Events Fog , Snow    
Averages and records for this station are not official NWS values.
T = Trace of Precipitation, MM = Missing Value Source: NWS Daily Summary

Daily Weather History Graph

Daily Weather History Graph

Search for Another Location

Airport or City:

Trip Planner

Search our weather history database for the weather conditions in past years. The results will help you decide how hot, cold, wet, or windy it might be!

Date:

Astronomy

Dec. 22, 2013 Rise Set
Actual Time 10:35 AM AKST 2:48 PM AKST
Civil Twilight 9:17 AM AKST 4:06 PM AKST
Nautical Twilight 8:08 AM AKST 5:14 PM AKST
Astronomical Twilight 7:09 AM AKST 6:14 PM AKST
Moon 10:16 PM AKST (12/22) 11:37 AM AKST (12/22)
Length of Visible Light 6h 48m
Length of Day
4h 12m
Waning Gibbous, 75% of the Moon is Illuminated
Dec 22
Waning Gibbous
Dec 25
Last Quarter
Jan 1
New
Jan 7
First Quarter
Jan 15
Full

Hourly Weather History & Observations

Time (AKST) Temp. Windchill Dew Point Humidity Pressure Visibility Wind Dir Wind Speed Gust Speed Precip Events Conditions
12:53 AM 7.0 °F -13.6 °F -2.0 °F 67% 29.70 in 10.0 mi East 21.9 mph 29.9 mph N/A   Clear
1:53 AM 8.1 °F -11.2 °F -2.0 °F 64% 29.68 in 10.0 mi East 19.6 mph 27.6 mph N/A   Scattered Clouds
2:53 AM 8.1 °F -11.2 °F -0.9 °F 67% 29.67 in 10.0 mi East 19.6 mph 28.8 mph N/A   Overcast
3:53 AM 8.1 °F -11.2 °F -2.0 °F 64% 29.65 in 10.0 mi ESE 19.6 mph 26.5 mph N/A   Clear
4:53 AM 8.1 °F -10.2 °F -0.9 °F 67% 29.63 in 10.0 mi ESE 17.3 mph 25.3 mph N/A   Overcast
5:53 AM 9.0 °F -10.5 °F -0.9 °F 64% 29.62 in 10.0 mi East 20.7 mph 29.9 mph N/A   Overcast
6:53 AM 10.0 °F -8.1 °F -0.0 °F 64% 29.60 in 10.0 mi ESE 18.4 mph 27.6 mph N/A   Overcast
7:53 AM 10.0 °F -7.1 °F -0.0 °F 64% 29.60 in 10.0 mi East 16.1 mph - N/A   Overcast
8:53 AM 10.0 °F -5.2 °F 1.0 °F 67% 29.60 in 10.0 mi East 12.7 mph - N/A   Overcast
9:11 AM 8.6 °F -7.0 °F 1.4 °F 73% 29.48 in 2.0 mi East 12.7 mph - 0.00 in Snow Light Snow
9:16 AM 8.6 °F -5.5 °F 1.4 °F 73% 29.48 in 3.0 mi East 10.4 mph - 0.00 in Snow Light Snow
9:41 AM 10.4 °F 0.8 °F 3.2 °F 73% 29.50 in 1.8 mi ENE 5.8 mph - 0.00 in Snow Light Snow
9:53 AM 9.0 °F -3.2 °F 3.9 °F 80% 29.64 in 1.8 mi North 8.1 mph - 0.00 in Snow Light Snow
10:26 AM 8.6 °F -5.5 °F 3.2 °F 79% 29.54 in 1.0 mi NW 10.4 mph - 0.01 in Snow Light Snow
10:53 AM 8.1 °F -5.3 °F 3.9 °F 83% 29.70 in 1.2 mi NW 9.2 mph - 0.01 in Snow Light Snow
11:10 AM 8.6 °F -3.7 °F 3.2 °F 79% 29.57 in 0.8 mi WNW 8.1 mph - 0.00 in Snow Light Snow
11:28 AM 8.6 °F -3.7 °F 3.2 °F 79% 29.58 in 1.2 mi WNW 8.1 mph - 0.01 in Snow Light Snow
11:53 AM 9.0 °F -5.1 °F 3.9 °F 80% 29.73 in 1.8 mi WNW 10.4 mph - 0.01 in Snow Light Snow
12:00 PM 8.6 °F -4.7 °F 3.2 °F 79% 29.60 in 2.5 mi WNW 9.2 mph - 0.00 in Snow Light Snow
12:14 PM 8.6 °F -4.7 °F 3.2 °F 79% 29.61 in 1.5 mi West 9.2 mph - 0.00 in Snow Light Snow
12:21 PM 8.6 °F -4.7 °F 3.2 °F 79% 29.61 in 1.0 mi West 9.2 mph - 0.00 in Snow Light Snow
12:30 PM 8.6 °F -4.7 °F 3.2 °F 79% 29.61 in 0.8 mi West 9.2 mph - 0.01 in Snow Light Snow
12:38 PM 8.6 °F -6.3 °F 3.2 °F 79% 29.62 in 0.5 mi West 11.5 mph - 0.01 in Fog , Snow Snow
12:46 PM 8.6 °F -3.7 °F 3.2 °F 79% 29.62 in 0.5 mi WSW 8.1 mph - 0.01 in Fog , Snow Snow
12:53 PM 8.1 °F -5.3 °F 3.9 °F 83% 29.75 in 0.5 mi WSW 9.2 mph - 0.01 in Fog , Snow Snow
1:53 PM 8.1 °F -5.3 °F 3.9 °F 83% 29.78 in 0.8 mi SW 9.2 mph - 0.01 in Snow Light Snow
2:00 PM 8.6 °F -3.7 °F 3.2 °F 79% 29.64 in 1.0 mi SW 8.1 mph - 0.00 in Snow Light Snow
2:22 PM 8.6 °F -3.7 °F 3.2 °F 79% 29.65 in 2.0 mi WSW 8.1 mph - 0.00 in Snow Light Snow
2:36 PM 8.6 °F -2.6 °F 3.2 °F 79% 29.65 in 1.2 mi SW 6.9 mph - 0.00 in Snow Light Snow
2:53 PM 8.1 °F -2.0 °F 3.9 °F 83% 29.78 in 1.0 mi SW 5.8 mph - 0.00 in Snow Light Snow
3:04 PM 8.6 °F -2.6 °F 3.2 °F 79% 29.65 in 2.0 mi SW 6.9 mph - 0.01 in Snow Light Snow
3:13 PM 8.6 °F -3.7 °F 3.2 °F 79% 29.65 in 5.0 mi SW 8.1 mph - 0.01 in Snow Light Snow
3:32 PM 8.6 °F -2.6 °F 3.2 °F 79% 29.65 in 2.5 mi SW 6.9 mph - 0.01 in Snow Light Snow
3:41 PM 8.6 °F -1.3 °F 3.2 °F 79% 29.66 in 2.5 mi SW 5.8 mph - 0.01 in Snow Light Snow
3:53 PM 9.0 °F 0.6 °F 5.0 °F 84% 29.79 in 2.5 mi SSW 4.6 mph - 0.01 in Snow Light Snow
4:16 PM 8.6 °F -2.6 °F 3.2 °F 79% 29.67 in 1.8 mi SW 6.9 mph - 0.00 in Snow Light Snow
4:53 PM 9.0 °F -2.2 °F 5.0 °F 84% 29.81 in 1.5 mi SW 6.9 mph - 0.01 in Snow Light Snow
5:37 PM 8.6 °F -1.3 °F 5.0 °F 85% 29.68 in 2.0 mi SW 5.8 mph - 0.01 in Snow Light Snow
5:53 PM 9.0 °F -0.9 °F 5.0 °F 84% 29.82 in 2.5 mi SW 5.8 mph - 0.02 in Snow Light Snow
6:53 PM 10.0 °F -0.9 °F 6.1 °F 84% 29.84 in 2.0 mi SW 6.9 mph - 0.01 in Snow Light Snow
7:08 PM 8.6 °F -1.3 °F 6.8 °F 92% 29.71 in 1.5 mi SW 5.8 mph - 0.00 in Snow Light Snow
7:28 PM 8.6 °F -1.3 °F 6.8 °F 92% 29.72 in 1.0 mi SW 5.8 mph - 0.01 in Snow Light Snow
7:53 PM 10.0 °F 1.8 °F 6.1 °F 84% 29.85 in 1.2 mi SW 4.6 mph - 0.01 in Snow Light Snow
8:05 PM 10.4 °F 0.8 °F 6.8 °F 85% 29.72 in 2.0 mi West 5.8 mph - 0.01 in Snow Light Snow
8:28 PM 10.4 °F -4.8 °F 6.8 °F 85% 29.73 in 3.0 mi NW 12.7 mph 17.3 mph 0.01 in Snow Light Snow
8:53 PM 10.9 °F -2.6 °F 5.0 °F 77% 29.86 in 3.0 mi NW 10.4 mph - 0.01 in Snow Light Snow
9:11 PM 10.4 °F -1.5 °F 5.0 °F 79% 29.74 in 2.0 mi NW 8.1 mph - 0.00 in Snow Light Snow
9:35 PM 10.4 °F -1.5 °F 5.0 °F 79% 29.74 in 3.0 mi NW 8.1 mph - 0.00 in Snow Light Snow
9:53 PM 9.0 °F -2.2 °F 5.0 °F 84% 29.88 in 3.0 mi NW 6.9 mph - 0.00 in Snow Light Snow
10:03 PM 8.6 °F -3.7 °F 5.0 °F 85% 29.74 in 2.5 mi NW 8.1 mph - 0.00 in Snow Light Snow
10:17 PM 8.6 °F -1.3 °F 5.0 °F 85% 29.75 in 4.0 mi NW 5.8 mph - 0.00 in Snow Light Snow
10:38 PM 8.6 °F -2.6 °F 5.0 °F 85% 29.75 in 2.0 mi NW 6.9 mph - 0.00 in Snow Light Snow
10:53 PM 9.0 °F -3.2 °F 3.9 °F 80% 29.89 in 2.5 mi WNW 8.1 mph - 0.01 in Snow Light Snow
11:03 PM 8.6 °F -4.7 °F 3.2 °F 79% 29.76 in 2.0 mi WNW 9.2 mph - 0.00 in Snow Light Snow
11:40 PM 8.6 °F -7.0 °F 3.2 °F 79% 29.77 in 3.0 mi NW 12.7 mph - 0.00 in Snow Light Snow
11:49 PM 8.6 °F -5.5 °F 3.2 °F 79% 29.77 in 3.0 mi NW 10.4 mph - 0.00 in Snow Light Snow